#timestamp,LO_Frequency,Hit,StdDev 
1509930015.6,286047011.0,N
1509930035.4,286047011.7,N
1509930055.3,286047009.7,N
1509930075.1,286047009.5,N
1509930076.0,286047009.5,N
1509930095.8,286047011.8,N
1509930115.7,286047014.0,N
1509930135.5,286047012.8,N
1509930155.3,286047018.6,Y
1509930175.2,286047008.0,P
1509930195.0,286047007.7,P
1509930195.9,286047007.7,P
1509930215.8,286047001.4,Y
1509930235.6,286046992.3,P
1509930255.4,286046988.5,N
1509930275.3,286046991.1,N
1509930295.1,286046988.2,N
1509930296.0,286046988.2,N
1509930315.8,286046986.2,N
1509930335.7,286046980.9,N
1509930355.5,286046982.7,N
1509930375.3,286046980.6,N
1509930395.2,286046978.5,N
1509930415.9,286046978.3,N
1509930435.7,286046980.2,N
1509930455.6,286046977.7,N
1509930475.4,286046976.6,Y
1509930495.2,286046990.4,P
1509930515.1,286046993.2,N
1509930516.0,286046993.2,N
1509930535.8,286046989.5,Y
1509930555.6,286046996.5,P
1509930575.5,286046999.1,N
1509930595.3,286046996.6,N
1509930615.1,286046999.2,N
1509930635.9,286046998.2,N
1509930655.7,286046996.3,N
1509930675.5,286046998.8,N
1509930695.4,286046999.5,N
1509930715.2,286046998.8,N
1509930735.0,286047000.7,N
1509930735.9,286047000.7,N
1509930755.8,286047000.1,N
1509930775.6,286047000.9,N
1509930795.4,286047002.6,N
1509930815.3,286047004.4,N
1509930835.1,286047003.8,N
1509930855.8,286047001.4,N
1509930875.7,286047002.9,N
1509930895.5,286047005.7,N
1509930915.3,286047006.0,N
1509930935.2,286047007.4,N
1509930955.9,286047004.7,N
1509930975.7,286047006.7,N
1509930995.6,286047010.7,N
1509931015.4,286047011.1,N
1509931035.2,286047011.3,N
1509931055.1,286047011.5,N
1509931056.0,286047011.5,N
1509931075.8,286047010.9,N
1509931095.6,286047013.2,N
1509931115.5,286047011.5,N
1509931135.3,286047012.5,N
1509931155.1,286047015.6,N
1509931175.9,286047012.5,N
1509931195.7,286047013.2,N
1509931215.5,286047015.5,N
1509931235.4,286047016.6,Y
1509931255.2,286047006.3,P
1509931275.0,286047010.3,P
1509931275.9,286047010.3,P
1509931295.8,286047010.8,Y
1509931315.6,286046997.2,P
1509931335.5,286046994.3,N
1509931355.3,286046993.0,N
1509931375.1,286046993.1,N
1509931395.9,286046994.3,N
1509931415.7,286046998.8,N
1509931435.5,286046996.0,N
1509931455.4,286046995.3,N
1509931475.2,286046993.7,N
1509931495.0,286046990.3,N
1509931495.9,286046990.3,N
1509931515.8,286046989.6,N
1509931535.6,286046986.4,N
1509931555.4,286046983.6,Y
1509931575.3,286046989.7,P
1509931595.1,286046990.8,P
1509931596.0,286046990.8,P
1509931615.8,286046988.2,Y
1509931635.7,286046997.9,P
1509931655.5,286046995.2,N
1509931675.3,286046995.8,N
1509931695.2,286046999.1,N
1509931715.0,286046993.4,N
1509931715.9,286046993.4,N
1509931735.7,286046993.8,N
1509931755.6,286046994.9,N
1509931775.4,286046997.2,N
1509931795.2,286046997.0,N
1509931815.1,286046998.9,N
1509931816.0,286046998.9,N
1509931835.8,286046997.6,N
1509931855.6,286046997.9,N
1509931875.5,286046996.8,N
1509931895.3,286047002.0,N
1509931915.1,286047001.5,N
1509931935.9,286047004.2,N
1509931955.7,286047009.0,N
1509931975.5,286047010.7,N
1509931995.4,286047008.2,N
1509932015.2,286047012.4,N
1509932035.0,286047013.1,N
1509932035.9,286047013.1,N
1509932055.8,286047015.4,N
1509932075.6,286047016.7,N
1509932095.4,286047015.9,N
1509932115.3,286047013.2,N
1509932135.1,286047015.5,N
1509932155.8,286047018.8,N
1509932175.7,286047018.0,N
1509932195.5,286047018.4,N
1509932215.3,286047015.2,N
1509932235.2,286047008.3,N
1509932255.9,286047004.4,N
1509932275.7,286047002.4,N
1509932295.6,286046998.2,N
1509932315.4,286046997.6,N
1509932335.2,286046999.4,N
1509932355.1,286046997.9,N
1509932356.0,286046997.9,N
1509932375.8,286046995.2,N
1509932395.6,286047002.4,N
1509932415.5,286047004.5,N
1509932435.3,286047001.6,N
1509932455.1,286047000.7,N
1509932475.9,286046998.3,N
1509932495.7,286046997.3,N
1509932515.5,286046998.1,N
1509932535.4,286047002.2,N
1509932555.2,286047004.8,N
1509932575.0,286047009.2,N
1509932575.9,286047009.2,N
1509932595.8,286047007.5,N
1509932615.6,286047009.1,N
1509932635.4,286047008.8,N
1509932655.3,286047007.1,N
1509932675.1,286047007.2,N
1509932676.0,286047007.2,N
1509932695.8,286047005.7,N
1509932715.7,286047005.1,N
1509932735.5,286047002.9,N
1509932755.3,286047007.5,N
1509932775.2,286047004.8,N
1509932795.9,286047005.3,N
1509932815.7,286047005.7,N
1509932835.6,286047001.6,N
1509932855.4,286047001.3,N
1509932875.2,286047002.7,N
1509932895.1,286047004.3,N
1509932896.0,286047004.3,N
1509932915.8,286047000.2,N
1509932935.6,286047004.0,N
1509932955.5,286047007.2,N
1509932975.3,286047010.5,Y
1509932995.1,286047005.8,P
1509933015.9,286047006.9,P
1509933035.7,286047006.3,P
1509933055.6,286047006.1,Y
1509933075.4,286047000.1,P
1509933095.2,286046998.2,N
1509933115.1,286047002.4,N
1509933116.0,286047002.4,N
1509933135.8,286047001.1,N
1509933155.6,286047000.7,N
1509933175.5,286047001.0,N
1509933195.3,286047002.6,N
1509933215.1,286047003.0,N
1509933235.9,286047003.5,N
1509933255.7,286047002.8,N
1509933275.5,286047000.0,N
1509933295.4,286046998.3,N
1509933315.2,286046999.1,N
1509933335.0,286046997.2,N
1509933335.9,286046997.2,N
1509933355.8,286046999.6,N
1509933375.6,286046998.8,N
1509933395.4,286046995.0,N
1509933415.3,286046998.8,N
1509933435.1,286046998.3,N
1509933455.8,286046998.6,N
1509933475.7,286047001.7,N
1509933495.5,286047001.0,N
1509933515.3,286047002.7,N
1509933535.2,286047001.3,N
1509933555.9,286047004.2,N
1509933575.7,286047004.8,N
1509933595.6,286047006.8,N
